"2010-02-22 00:00:00",1702359,5.147,83.3,4.815,0.628,-5.055,96.28747,-10.15,-8.74,88.9,0,109,13.81,-9.43,45.3
"2010-02-22 00:00:30",1702360,5.186,86,3.063,0.699,-4.992,96.28747,-10.15,-8.75,88.9,0,109,13.81,-9.43,48.0
"2010-02-22 00:01:00",1702361,5.092,88.3,3.772,0.678,-4.82,96.2869,-10.15,-8.79,88.9,0,109,13.81,-9.44,50.3
"2010-02-22 00:01:30",1702362,4.536,85.4,5.008,1.033,-5.814,96.27866,-10.17,-8.83,88.9,0,109,13.81,-9.46,47.4
"2010-02-22 00:02:00",1702363,4.155,82.2,4.519,1.074,-6.804,96.26419,-10.21,-8.85,88.8,0,109,13.81,-9.49,44.2
"2010-02-22 00:02:30",1702364,4.203,82.3,6.103,1.181,-7.068,96.25993,-10.22,-8.93,88.8,0,109,13.81,-9.50,44.3
"2010-02-22 00:03:00",1702365,4.725,86.4,5.251,0.992,-5.51,96.2551,-10.23,-8.87,88.8,0,109,13.82,-9.52,48.4
"2010-02-22 00:03:30",1702366,5.215,84.1,4.497,0.825,-4.568,96.2534,-10.24,-8.82,88.9,0,109,13.82,-9.52,46.1
"2010-02-22 00:04:00",1702367,5.321,87.7,3.18,0.601,-4.089,96.2534,-10.24,-8.8,88.9,0,109,13.82,-9.52,49.7
"2010-02-22 00:04:30",1702368,5.247,85.1,3.42,0.591,-4.115,96.2534,-10.24,-8.82,88.9,0,109,13.82,-9.52,47.1
"2010-02-22 00:05:00",1702369,5.161,83.9,3.295,0.672,-4.325,96.2534,-10.24,-8.82,88.9,0,109,13.83,-9.52,45.9
"2010-02-22 00:05:30",1702370,5.034,82.9,3.56,0.478,-4.578,96.24177,-10.27,-8.83,88.9,0,109,13.83,-9.55,44.9
"2010-02-22 00:06:00",1702371,5.196,84,3.572,0.644,-4.568,96.23353,-10.29,-8.87,88.9,0,109,13.83,-9.57,46.0
"2010-02-22 00:06:30",1702372,5.126,86.7,2.765,0.783,-4.56,96.22729,-10.3,-8.87,88.9,0,109,13.83,-9.59,48.7
"2010-02-22 00:07:00",1702373,5.371,85.7,4.596,0.494,-4.762,96.22133,-10.32,-8.88,88.9,0,109,13.83,-9.60,47.7
"2010-02-22 00:07:30",1702374,5.161,87.9,4.491,0.71,-4.679,96.21935,-10.32,-8.88,88.9,0,109,13.83,-9.61,49.9
"2010-02-22 00:08:00",1702375,4.828,86.6,7.485,0.796,-4.855,96.21935,-10.32,-8.89,88.9,0,109,13.83,-9.61,48.6
"2010-02-22 00:08:30",1702376,4.942,89.1,4.203,0.667,-4.965,96.21935,-10.32,-8.9,88.9,0,109,13.83,-9.61,51.1
"2010-02-22 00:09:00",1702377,4.326,87.2,4.729,1.077,-5.881,96.21906,-10.32,-8.92,88.9,0,109,13.83,-9.61,49.2
"2010-02-22 00:09:30",1702378,3.652,86.4,4.955,0.968,-7.099,96.21082,-10.35,-9,88.8,0,109,13.83,-9.63,48.4
"2010-02-22 00:10:00",1702379,4.757,90,5.76,0.968,-5.95,96.19607,-10.38,-9.03,88.8,0,109,13.83,-9.67,52.0
"2010-02-22 00:10:30",1702380,4.92,86.8,3.788,0.715,-4.947,96.1921,-10.39,-8.94,88.9,0,109,13.83,-9.68,48.8
"2010-02-22 00:11:00",1702381,4.608,86.2,4.508,0.788,-5.025,96.18584,-10.41,-8.96,88.9,0,109,13.83,-9.69,48.2
"2010-02-22 00:11:30",1702382,4.524,89.2,4.356,0.88,-4.585,96.18529,-10.41,-8.97,89,0,109,13.84,-9.69,51.2
"2010-02-22 00:12:00",1702383,4.85,86.8,4.055,0.475,-4.239,96.18529,-10.41,-8.96,89,0,109,13.84,-9.69,48.8
"2010-02-22 00:12:30",1702384,4.69,87.4,3.956,0.575,-4.479,96.18529,-10.41,-8.97,89,0,109,13.84,-9.69,49.4
"2010-02-22 00:13:00",1702385,4.968,96.2,4.503,0.671,-4.381,96.18529,-10.41,-8.98,89.1,0,109,13.84,-9.69,58.2
"2010-02-22 00:13:30",1702386,5.12,101,4.497,0.647,-4.808,96.18555,-10.41,-8.98,89.1,0,109,13.84,-9.69,63.0
"2010-02-22 00:14:00",1702387,4.668,96.4,4.013,0.631,-4.935,96.18583,-10.41,-8.96,89.1,0,109,13.84,-9.69,58.4
"2010-02-22 00:14:30",1702388,4.272,95.4,3.539,0.8,-5.207,96.18665,-10.41,-8.98,89.1,0,109,13.84,-9.69,57.4
"2010-02-22 00:15:00",1702389,4.224,98.1,6.308,1.053,-6.425,96.18719,-10.41,-9.06,89.1,0,109,13.84,-9.69,60.1
"2010-02-22 00:15:30",1702390,4.008,93.8,6.319,1.101,-7.231,96.188,-10.4,-9.11,89.1,0,109,13.83,-9.69,55.8
"2010-02-22 00:16:00",1702391,3.478,96.9,5.876,1.089,-7.929,96.18466,-10.41,-9.14,89.1,0,109,13.84,-9.70,58.9
"2010-02-22 00:16:30",1702392,4.672,99.4,4.828,0.998,-5.411,96.18674,-10.41,-9.08,89.2,0,108.9,13.83,-9.69,61.4
"2010-02-22 00:17:00",1702393,5.284,99.2,3.497,0.552,-4.413,96.18257,-10.42,-9.01,89.3,0,109,13.84,-9.70,61.2
"2010-02-22 00:17:30",1702394,5.492,97.9,4.51,0.606,-4.368,96.17908,-10.43,-9.02,89.3,0,109,13.83,-9.71,59.9
"2010-02-22 00:18:00",1702395,5.346,99.9,3.104,0.62,-4.377,96.17589,-10.43,-9,89.4,0,109,13.83,-9.72,61.9
"2010-02-22 00:18:30",1702396,5.449,101.5,3.354,0.616,-4.551,96.17912,-10.43,-9,89.4,0,109.1,13.83,-9.71,63.5
"2010-02-22 00:19:00",1702397,5.633,102.3,4.53,0.48,-4.685,96.17571,-10.43,-9.03,89.4,0,109,13.83,-9.72,64.3
"2010-02-22 00:19:30",1702398,5.528,103.8,3.082,0.612,-4.918,96.17416,-10.44,-9.04,89.5,0,109,13.83,-9.72,65.8
"2010-02-22 00:20:00",1702399,5.444,107.2,3.547,0.601,-4.952,96.17525,-10.44,-9.02,89.5,0,109,13.83,-9.72,69.2
"2010-02-22 00:20:30",1702400,5.414,107.2,3.439,0.637,-4.883,96.17579,-10.43,-9.04,89.5,0,109,13.83,-9.72,69.2
"2010-02-22 00:21:00",1702401,5.498,109,3.339,0.607,-4.788,96.17579,-10.43,-9.05,89.5,0,109,13.83,-9.72,71.0
"2010-02-22 00:21:30",1702402,5.618,112.6,3.208,0.504,-4.738,96.17039,-10.45,-9.06,89.5,0,109,13.84,-9.73,74.6
"2010-02-22 00:22:00",1702403,5.334,112.7,2.954,0.632,-4.66,96.15791,-10.48,-9.08,89.6,0,109,13.84,-9.76,74.7
"2010-02-22 00:22:30",1702404,5.369,113.3,2.984,0.695,-4.588,96.14768,-10.51,-9.08,89.6,0,109,13.84,-9.79,75.3
"2010-02-22 00:23:00",1702405,5.607,112.2,3.462,0.446,-4.804,96.14428,-10.51,-9.09,89.5,0,109,13.84,-9.80,74.2
"2010-02-22 00:23:30",1702406,5.531,111.2,4.099,0.589,-4.6,96.14172,-10.52,-9.1,89.6,0,109,13.84,-9.81,73.2
"2010-02-22 00:24:00",1702407,5.499,108.5,2.941,0.591,-4.433,96.14172,-10.52,-9.12,89.6,0,109,13.84,-9.81,70.5
"2010-02-22 00:24:30",1702408,5.591,107.8,3.879,0.518,-4.398,96.14172,-10.52,-9.11,89.5,0,109,13.84,-9.81,69.8
"2010-02-22 00:25:00",1702409,5.514,107.5,2.64,0.695,-4.519,96.13489,-10.54,-9.15,89.6,0,109,13.84,-9.82,69.5
"2010-02-22 00:25:30",1702410,5.525,108.2,2.771,0.589,-4.634,96.11783,-10.58,-9.16,89.6,0,109,13.84,-9.87,70.2
"2010-02-22 00:26:00",1702411,5.443,108.2,3.055,0.625,-4.61,96.11496,-10.59,-9.15,89.6,0,109,13.84,-9.87,70.2
"2010-02-22 00:26:30",1702412,5.505,108.9,3.279,0.596,-4.652,96.11065,-10.6,-9.18,89.5,0,109,13.84,-9.89,70.9
"2010-02-22 00:27:00",1702413,5.518,108.7,3.17,0.581,-4.433,96.11011,-10.6,-9.19,89.5,0,109,13.84,-9.89,70.7
"2010-02-22 00:27:30",1702414,5.653,108.7,3.541,0.274,-4.476,96.11284,-10.59,-9.19,89.5,0,109,13.84,-9.88,70.7
"2010-02-22 00:28:00",1702415,5.313,108.9,2.643,0.698,-4.598,96.11388,-10.59,-9.2,89.6,0,109,13.85,-9.88,70.9
"2010-02-22 00:28:30",1702416,5.298,110.8,3.213,0.605,-4.743,96.0994,-10.63,-9.23,89.6,0,109,13.85,-9.91,72.8
"2010-02-22 00:29:00",1702417,5.223,111.9,3.6,0.641,-4.715,96.08833,-10.66,-9.24,89.5,0,109,13.85,-9.94,73.9
"2010-02-22 00:29:30",1702418,5.383,112.1,3.493,0.355,-4.658,96.08264,-10.67,-9.24,89.6,0,109,13.85,-9.96,74.1
"2010-02-22 00:30:00",1702419,5.241,109.8,3.269,0.616,-4.796,96.08177,-10.67,-9.25,89.6,0,109,13.85,-9.96,71.8
"2010-02-22 00:30:30",1702420,5.109,109.8,2.413,0.681,-4.776,96.0815,-10.67,-9.26,89.6,0,109,13.85,-9.96,71.8
"2010-02-22 00:31:00",1702421,5.101,109.6,4.099,0.504,-4.617,96.08177,-10.67,-9.29,89.6,0,109,13.85,-9.96,71.6
"2010-02-22 00:31:30",1702422,5.029,110.7,2.785,0.694,-4.842,96.08149,-10.67,-9.26,89.6,0,109,13.85,-9.96,72.7
"2010-02-22 00:32:00",1702423,5.192,112.4,4.106,0.45,-4.947,96.07325,-10.69,-9.29,89.6,0,109,13.85,-9.98,74.4
"2010-02-22 00:32:30",1702424,4.952,115.2,4.337,0.767,-5.62,96.06388,-10.72,-9.36,89.6,0,109,13.85,-10.00,77.2
"2010-02-22 00:33:00",1702425,5.037,116,3.546,0.606,-5.429,96.06332,-10.72,-9.34,89.6,0,109,13.85,-10.01,78.0
"2010-02-22 00:33:30",1702426,4.388,112.5,5.532,1.09,-6.532,96.05622,-10.74,-9.43,89.5,0,109,13.84,-10.02,74.5
"2010-02-22 00:34:00",1702427,4.733,112.1,5.36,1.082,-5.65,96.05309,-10.75,-9.39,89.5,0,109,13.85,-10.03,74.1
"2010-02-22 00:34:30",1702428,5.466,111.3,3.617,0.483,-4.225,96.04911,-10.76,-9.36,89.6,0,108.9,13.85,-10.04,73.3
"2010-02-22 00:35:00",1702429,5.446,114,2.902,0.583,-4.508,96.0477,-10.76,-9.36,89.6,0,109,13.85,-10.05,76.0
"2010-02-22 00:35:30",1702430,5.526,112.7,3.62,0.606,-4.236,96.0477,-10.76,-9.35,89.6,0,109,13.85,-10.05,74.7
"2010-02-22 00:36:00",1702431,5.492,114.8,3.445,0.69,-4.659,96.04344,-10.77,-9.39,89.6,0,108.9,13.85,-10.06,76.8
"2010-02-22 00:36:30",1702432,5.493,115.1,3.318,0.685,-4.644,96.03038,-10.8,-9.38,89.6,0,109,13.85,-10.09,77.1
"2010-02-22 00:37:00",1702433,5.478,116.2,3.671,0.625,-4.515,96.02583,-10.82,-9.41,89.6,0,109,13.85,-10.10,78.2
"2010-02-22 00:37:30",1702434,5.538,119.6,3.236,0.481,-4.81,96.01958,-10.83,-9.41,89.6,0,109,13.85,-10.12,81.6
"2010-02-22 00:38:00",1702435,5.407,120,4.302,0.509,-4.64,96.01958,-10.83,-9.4,89.6,0,108.9,13.85,-10.12,82.0
"2010-02-22 00:38:30",1702436,5.395,118.9,3.093,0.615,-4.822,96.01504,-10.84,-9.41,89.6,0,109,13.85,-10.13,80.9
"2010-02-22 00:39:00",1702437,5.402,121.2,3.338,0.611,-4.768,96.01363,-10.85,-9.44,89.6,0,108.9,13.85,-10.13,83.2
"2010-02-22 00:39:30",1702438,5.511,120.3,2.325,0.582,-4.84,96.01417,-10.85,-9.43,89.6,0,108.9,13.85,-10.13,82.3
"2010-02-22 00:40:00",1702439,5.377,119.8,3.251,0.63,-4.774,96.01363,-10.85,-9.43,89.7,0,108.9,13.85,-10.13,81.8
"2010-02-22 00:40:30",1702440,5.462,120.4,3.731,0.478,-4.789,96.01363,-10.85,-9.44,89.7,0,108.9,13.86,-10.13,82.4
"2010-02-22 00:41:00",1702441,5.394,120.5,3.594,0.503,-4.653,96.01417,-10.85,-9.44,89.7,0,108.9,13.86,-10.13,82.5
"2010-02-22 00:41:30",1702442,5.358,121.2,3.18,0.589,-4.855,96.01305,-10.85,-9.45,89.7,0,108.9,13.86,-10.13,83.2
"2010-02-22 00:42:00",1702443,5.466,120.3,3.679,0.486,-4.834,96.00762,-10.86,-9.46,89.7,0,108.9,13.86,-10.15,82.3
"2010-02-22 00:42:30",1702444,5.506,119.4,3.764,0.505,-4.871,95.99855,-10.88,-9.46,89.7,0,108.9,13.86,-10.17,81.4
"2010-02-22 00:43:00",1702445,5.473,120.3,3.927,0.337,-4.785,95.99651,-10.89,-9.46,89.7,0,108.9,13.86,-10.18,82.3
"2010-02-22 00:43:30",1702446,5.313,121.7,3.181,0.592,-4.947,95.9954,-10.89,-9.48,89.7,0,108.9,13.86,-10.18,83.7
"2010-02-22 00:44:00",1702447,5.201,120.7,2.213,0.792,-4.95,95.99654,-10.89,-9.47,89.8,0,108.9,13.86,-10.18,82.7
"2010-02-22 00:44:30",1702448,5.313,119,3.251,0.619,-4.835,95.99368,-10.9,-9.48,89.8,0,108.9,13.86,-10.18,81.0
"2010-02-22 00:45:00",1702449,5.31,121.6,3.24,0.69,-4.886,95.99163,-10.9,-9.48,89.8,0,108.9,13.86,-10.19,83.6
"2010-02-22 00:45:30",1702450,5.232,123.6,3.685,0.6,-5.051,95.98961,-10.91,-9.48,89.8,0,108.9,13.86,-10.19,85.6
"2010-02-22 00:46:00",1702451,5.174,126.6,2.737,0.594,-4.962,95.9899,-10.91,-9.49,89.8,0,108.9,13.86,-10.19,88.6
"2010-02-22 00:46:30",1702452,5.062,127.9,2.42,0.583,-4.943,95.99102,-10.9,-9.49,89.8,0,108.9,13.86,-10.19,89.9
"2010-02-22 00:47:00",1702453,4.921,125.8,3.3,0.71,-4.736,95.9907,-10.9,-9.49,89.8,0,108.9,13.86,-10.19,87.8
"2010-02-22 00:47:30",1702454,5.014,127.4,3.3,0.624,-4.948,95.98951,-10.91,-9.48,89.9,0,108.9,13.86,-10.19,89.4
"2010-02-22 00:48:00",1702455,5.017,125.8,3.114,0.613,-5.042,95.98758,-10.91,-9.5,89.9,0,108.9,13.86,-10.20,87.8
"2010-02-22 00:48:30",1702456,4.976,125.7,3.425,0.613,-4.947,95.98972,-10.91,-9.49,89.9,0,108.9,13.86,-10.19,87.7
"2010-02-22 00:49:00",1702457,4.899,124.9,3.624,0.609,-4.972,95.98802,-10.91,-9.49,89.9,0,108.9,13.86,-10.20,86.9
"2010-02-22 00:49:30",1702458,4.913,126.6,2.218,0.669,-4.916,95.98855,-10.91,-9.5,89.9,0,108.9,13.86,-10.20,88.6
"2010-02-22 00:50:00",1702459,4.539,123.8,5.129,0.998,-5.763,95.98964,-10.91,-9.5,89.9,0,108.9,13.86,-10.19,85.8
"2010-02-22 00:50:30",1702460,4.403,122.8,4.988,1.013,-5.921,95.99182,-10.9,-9.53,89.9,0,108.9,13.86,-10.19,84.8
"2010-02-22 00:51:00",1702461,4.242,122.6,5.051,1.05,-5.865,95.99536,-10.89,-9.55,89.9,0,108.9,13.86,-10.18,84.6
"2010-02-22 00:51:30",1702462,4.306,120.9,5.228,1.027,-5.62,95.99564,-10.89,-9.57,90,0,108.9,13.86,-10.18,82.9
"2010-02-22 00:52:00",1702463,4.257,122.8,5.074,1.037,-5.59,95.99809,-10.89,-9.57,90,0,108.9,13.86,-10.17,84.8
"2010-02-22 00:52:30",1702464,4.624,126.6,3.148,0.723,-4.595,96,-10.88,-9.49,90.1,0,108.9,13.86,-10.17,88.6
"2010-02-22 00:53:00",1702465,4.375,125.9,5.485,0.954,-5.542,96.00163,-10.88,-9.53,90,0,108.9,13.86,-10.16,87.9
"2010-02-22 00:53:30",1702466,4.519,127,4.078,0.861,-5.127,96.00327,-10.87,-9.53,90.1,0,108.9,13.86,-10.16,89.0
"2010-02-22 00:54:00",1702467,4.541,127.7,4.138,0.804,-5.13,96.00327,-10.87,-9.54,90.1,0,108.9,13.86,-10.16,89.7
"2010-02-22 00:54:30",1702468,4.673,126.7,2.626,0.699,-4.743,96.00491,-10.87,-9.51,90.1,0,108.9,13.87,-10.15,88.7
"2010-02-22 00:55:00",1702469,4.664,124.6,3.195,0.61,-4.535,96.00546,-10.87,-9.5,90.1,0,108.9,13.87,-10.15,86.6
"2010-02-22 00:55:30",1702470,4.559,123.5,2.966,0.705,-4.913,96.00491,-10.87,-9.55,90.1,0,108.9,13.87,-10.15,85.5
"2010-02-22 00:56:00",1702471,4.083,120.8,5.469,1.036,-5.631,96.00626,-10.87,-9.59,90.1,0,108.9,13.87,-10.15,82.8
"2010-02-22 00:56:30",1702472,3.917,117.9,5.625,1.072,-6.576,96.00572,-10.87,-9.64,90.1,0,108.9,13.87,-10.15,79.9
"2010-02-22 00:57:00",1702473,4.666,121.5,3.187,0.485,-4.701,96.00681,-10.86,-9.54,90.2,0,108.9,13.87,-10.15,83.5
"2010-02-22 00:57:30",1702474,4.478,121.8,1.902,0.771,-4.655,96.006,-10.87,-9.48,90.3,0,108.9,13.87,-10.15,83.8
"2010-02-22 00:58:00",1702475,4.075,117.7,5.441,1.04,-5.493,96.006,-10.87,-9.57,90.2,0,108.9,13.87,-10.15,79.7
"2010-02-22 00:58:30",1702476,4.503,117.9,4.245,0.606,-4.92,96.006,-10.87,-9.55,90.3,0,108.9,13.87,-10.15,79.9
"2010-02-22 00:59:00",1702477,4.534,120.3,3.341,0.481,-4.791,96.00572,-10.87,-9.49,90.3,0,108.9,13.88,-10.15,82.3
"2010-02-22 00:59:30",1702478,3.646,115.1,5.527,1.113,-6.452,96.00517,-10.87,-9.56,90.3,0,108.9,13.88,-10.15,77.1
"2010-02-22 01:00:00",1702479,4.163,116.7,4.517,0.995,-5.587,96.006,-10.87,-9.53,90.3,0,108.9,13.88,-10.15,78.7
"2010-02-22 01:00:30",1702480,4.267,115.2,5.005,0.95,-5.56,96.006,-10.87,-9.56,90.3,0,108.9,13.88,-10.15,77.2
"2010-02-22 01:01:00",1702481,4.001,114.6,5.305,1.112,-5.612,96.00601,-10.87,-9.54,90.4,0,108.9,13.88,-10.15,76.6
"2010-02-22 01:01:30",1702482,4.394,115.8,5.198,0.919,-5.593,96.00573,-10.87,-9.55,90.4,0,108.9,13.88,-10.15,77.8
"2010-02-22 01:02:00",1702483,4.661,118.1,3.282,0.62,-4.782,96.00627,-10.87,-9.47,90.5,0,108.9,13.88,-10.15,80.1
"2010-02-22 01:02:30",1702484,4.642,120.7,3.177,0.695,-4.722,96.00572,-10.87,-9.48,90.5,0,108.9,13.88,-10.15,82.7
"2010-02-22 01:03:00",1702485,4.502,121.6,3.216,0.793,-4.8,96.00709,-10.86,-9.45,90.5,0,108.9,13.88,-10.15,83.6
"2010-02-22 01:03:30",1702486,4.725,122,3.912,0.347,-4.715,96.0071,-10.86,-9.46,90.5,0,108.9,13.88,-10.15,84.0
"2010-02-22 01:04:00",1702487,4.142,120.2,5.016,1.034,-5.787,96.009,-10.86,-9.53,90.5,0,108.9,13.88,-10.14,82.2
"2010-02-22 01:04:30",1702488,3.5,114.2,5.338,1.084,-7.455,96.00956,-10.86,-9.67,90.4,0,108.9,13.88,-10.14,76.2
"2010-02-22 01:05:00",1702489,4.467,118.2,4.155,0.918,-5.565,96.00982,-10.86,-9.54,90.5,0,108.9,13.88,-10.14,80.2
"2010-02-22 01:05:30",1702490,4.484,118,4.539,0.952,-5.392,96.00954,-10.86,-9.5,90.6,0,108.9,13.88,-10.14,80.0
"2010-02-22 01:06:00",1702491,4.534,116.2,4.358,0.911,-4.917,96.00954,-10.86,-9.49,90.6,0,108.9,13.88,-10.14,78.2
"2010-02-22 01:06:30",1702492,4.724,115.6,3.844,0.642,-4.074,96.01036,-10.85,-9.46,90.6,0,108.9,13.88,-10.14,77.6
"2010-02-22 01:07:00",1702493,4.793,112.8,3.014,0.606,-4.249,96.01172,-10.85,-9.46,90.6,0,108.9,13.87,-10.14,74.8
"2010-02-22 01:07:30",1702494,4.983,110.2,4.468,0.405,-4.213,96.01118,-10.85,-9.47,90.6,0,108.9,13.87,-10.14,72.2
"2010-02-22 01:08:00",1702495,4.937,108.2,3.281,0.696,-4.294,96.01172,-10.85,-9.46,90.6,0,108.9,13.87,-10.14,70.2
"2010-02-22 01:08:30",1702496,4.954,106.5,2.868,0.774,-4.425,96.01118,-10.85,-9.48,90.6,0,108.9,13.87,-10.14,68.5
"2010-02-22 01:09:00",1702497,4.943,106.7,3.471,0.612,-4.51,96.01199,-10.85,-9.46,90.6,0,108.9,13.87,-10.14,68.7
"2010-02-22 01:09:30",1702498,5.047,107.6,2.976,0.695,-4.572,96.01199,-10.85,-9.46,90.6,0,108.8,13.87,-10.14,69.6
"2010-02-22 01:10:00",1702499,5.021,107.3,3.746,0.645,-4.7,96.01226,-10.85,-9.46,90.7,0,108.9,13.87,-10.14,69.3
"2010-02-22 01:10:30",1702500,4.792,108.1,3.747,0.622,-4.605,96.01028,-10.85,-9.48,90.7,0,108.9,13.87,-10.14,70.1
"2010-02-22 01:11:00",1702501,4.942,109.8,4.049,0.602,-4.916,96.00829,-10.86,-9.49,90.7,0,108.9,13.87,-10.15,71.8
"2010-02-22 01:11:30",1702502,5.103,112.6,3.198,0.495,-5,96.00289,-10.87,-9.49,90.7,0,108.9,13.88,-10.16,74.6
"2010-02-22 01:12:00",1702503,4.842,113.7,3.793,0.615,-5.075,95.99806,-10.89,-9.49,90.7,0,108.9,13.88,-10.17,75.7
"2010-02-22 01:12:30",1702504,4.81,116,3.002,0.685,-5.363,95.98927,-10.91,-9.49,90.7,0,108.9,13.88,-10.19,78.0
"2010-02-22 01:13:00",1702505,4.878,116.9,3.706,0.452,-5.227,95.98727,-10.91,-9.51,90.7,0,108.9,13.88,-10.20,78.9
"2010-02-22 01:13:30",1702506,4.552,115,5.716,0.895,-6.107,95.9867,-10.91,-9.59,90.6,0,108.9,13.88,-10.20,77.0
"2010-02-22 01:14:00",1702507,3.958,110.4,5.104,1.144,-7.368,95.98557,-10.92,-9.67,90.6,0,108.9,13.88,-10.20,72.4
"2010-02-22 01:14:30",1702508,4.156,116,5.942,1.031,-5.934,95.98415,-10.92,-9.52,90.7,0,108.9,13.88,-10.21,78.0
"2010-02-22 01:15:00",1702509,4.082,119.4,5.049,1.088,-6.066,95.97961,-10.93,-9.59,90.7,0,108.9,13.88,-10.22,81.4
"2010-02-22 01:15:30",1702510,4.368,121.4,4.281,0.976,-5.171,95.98045,-10.93,-9.54,90.7,0,108.8,13.88,-10.22,83.4
"2010-02-22 01:16:00",1702511,4.35,121,3.513,0.844,-5.198,95.97875,-10.94,-9.55,90.8,0,108.9,13.88,-10.22,83.0
"2010-02-22 01:16:30",1702512,4.546,119.1,4.531,0.614,-4.764,95.97818,-10.94,-9.53,90.8,0,108.9,13.88,-10.22,81.1
"2010-02-22 01:17:00",1702513,4.543,119.8,3.475,0.609,-4.959,95.97818,-10.94,-9.52,90.8,0,108.9,13.88,-10.22,81.8
"2010-02-22 01:17:30",1702514,4.71,115.6,4.621,0.493,-4.693,95.97818,-10.94,-9.51,90.8,0,108.9,13.88,-10.22,77.6
"2010-02-22 01:18:00",1702515,4.721,110.9,3.864,0.713,-4.805,95.97818,-10.94,-9.52,90.8,0,108.9,13.88,-10.22,72.9
"2010-02-22 01:18:30",1702516,4.744,114.3,4.537,0.611,-5.007,95.97818,-10.94,-9.53,90.8,0,108.9,13.88,-10.22,76.3
"2010-02-22 01:19:00",1702517,4.524,116.5,3.363,0.684,-5.354,95.97818,-10.94,-9.53,90.8,0,108.9,13.88,-10.22,78.5
"2010-02-22 01:19:30",1702518,4.649,116.6,2.392,0.763,-5.46,95.97818,-10.94,-9.52,90.8,0,108.9,13.88,-10.22,78.6
"2010-02-22 01:20:00",1702519,4.552,114.8,4.122,0.814,-5.588,95.97818,-10.94,-9.58,90.8,0,108.9,13.88,-10.22,76.8
"2010-02-22 01:20:30",1702520,3.643,110.2,5.932,1.065,-7.404,95.97818,-10.94,-9.71,90.6,0,108.9,13.88,-10.22,72.2
"2010-02-22 01:21:00",1702521,3.141,108.3,5.179,1.046,-7.946,95.97818,-10.94,-9.72,90.6,0,108.9,13.89,-10.22,70.3
"2010-02-22 01:21:30",1702522,4.453,117.3,3.949,0.726,-5.175,95.9779,-10.94,-9.56,90.7,0,108.9,13.89,-10.22,79.3
"2010-02-22 01:22:00",1702523,4.789,116.4,3.475,0.474,-4.529,95.97562,-10.94,-9.58,90.7,0,108.9,13.89,-10.23,78.4
"2010-02-22 01:22:30",1702524,4.834,114.8,3.529,0.652,-4.55,95.97023,-10.96,-9.55,90.8,0,108.9,13.88,-10.24,76.8
"2010-02-22 01:23:00",1702525,5.091,112.7,3.818,0.584,-4.303,95.96398,-10.97,-9.56,90.7,0,108.9,13.88,-10.26,74.7
"2010-02-22 01:23:30",1702526,5.125,112.1,3.189,0.49,-4.565,95.96143,-10.98,-9.57,90.7,0,108.8,13.88,-10.27,74.1
"2010-02-22 01:24:00",1702527,5.069,111.2,3.635,0.659,-4.754,95.95802,-10.99,-9.56,90.7,0,108.9,13.88,-10.27,73.2
"2010-02-22 01:24:30",1702528,5.234,110,4.051,0.694,-4.853,95.95318,-11,-9.57,90.7,0,108.9,13.88,-10.29,72.0
"2010-02-22 01:25:00",1702529,5.159,113,3.524,0.688,-5.244,95.9529,-11,-9.58,90.7,0,108.9,13.88,-10.29,75.0
"2010-02-22 01:25:30",1702530,5.16,112.6,3.68,0.68,-5.022,95.95177,-11,-9.57,90.7,0,108.9,13.88,-10.29,74.6
"2010-02-22 01:26:00",1702531,5.163,116.2,4.174,0.612,-5.328,95.94893,-11.01,-9.58,90.7,0,108.9,13.88,-10.30,78.2
"2010-02-22 01:26:30",1702532,4.773,119.7,3.545,0.649,-5.151,95.94553,-11.02,-9.58,90.7,0,108.9,13.88,-10.31,81.7
"2010-02-22 01:27:00",1702533,4.842,118.1,3.369,0.696,-5.237,95.9441,-11.02,-9.61,90.7,0,108.9,13.88,-10.31,80.1
"2010-02-22 01:27:30",1702534,4.968,117,4.194,0.592,-5.304,95.9441,-11.02,-9.6,90.8,0,108.9,13.88,-10.31,79.0
"2010-02-22 01:28:00",1702535,4.908,116.6,3.383,0.519,-5.216,95.9441,-11.02,-9.61,90.7,0,108.9,13.88,-10.31,78.6
"2010-02-22 01:28:30",1702536,3.968,114.8,5.979,1.024,-6.652,95.9441,-11.02,-9.67,90.7,0,108.9,13.89,-10.31,76.8
"2010-02-22 01:29:00",1702537,4.08,117.6,5.797,1.053,-7.066,95.9441,-11.02,-9.77,90.6,0,108.9,13.89,-10.31,79.6
"2010-02-22 01:29:30",1702538,3.92,118,5.731,1.109,-7.329,95.9441,-11.02,-9.75,90.6,0,108.9,13.89,-10.31,80.0
"2010-02-22 01:30:00",1702539,4.533,118.7,5.844,0.969,-5.584,95.9441,-11.02,-9.68,90.7,0,108.9,13.89,-10.31,80.7
"2010-02-22 01:30:30",1702540,4.595,118.7,4.174,0.872,-4.948,95.9441,-11.02,-9.64,90.7,0,108.8,13.9,-10.31,80.7
"2010-02-22 01:31:00",1702541,4.651,119.5,4.252,0.877,-4.858,95.9441,-11.02,-9.66,90.7,0,108.9,13.89,-10.31,81.5
"2010-02-22 01:31:30",1702542,4.989,119.6,4.021,0.62,-4.525,95.94325,-11.03,-9.61,90.7,0,108.8,13.9,-10.31,81.6
"2010-02-22 01:32:00",1702543,4.967,117.6,3.446,0.722,-4.704,95.94126,-11.03,-9.63,90.7,0,108.9,13.89,-10.32,79.6
"2010-02-22 01:32:30",1702544,4.919,119.6,3.447,0.687,-4.745,95.93784,-11.04,-9.64,90.7,0,108.9,13.89,-10.33,81.6
"2010-02-22 01:33:00",1702545,4.977,120,3.114,0.688,-4.975,95.93188,-11.05,-9.65,90.7,0,108.9,13.89,-10.34,82.0
"2010-02-22 01:33:30",1702546,5.033,120.8,3.727,0.688,-4.756,95.92731,-11.07,-9.64,90.7,0,108.9,13.89,-10.35,82.8
"2010-02-22 01:34:00",1702547,5.019,118.4,3.38,0.6,-4.994,95.9228,-11.08,-9.63,90.7,0,108.9,13.89,-10.36,80.4
"2010-02-22 01:34:30",1702548,5.076,118.6,3.651,0.723,-5.017,95.91709,-11.09,-9.63,90.7,0,108.9,13.89,-10.38,80.6
"2010-02-22 01:35:00",1702549,5.055,116.8,3.648,0.687,-5.085,95.91711,-11.09,-9.65,90.7,0,108.9,13.89,-10.38,78.8
"2010-02-22 01:35:30",1702550,5.024,118.8,2.519,0.673,-5.142,95.91623,-11.09,-9.64,90.7,0,108.9,13.89,-10.38,80.8
"2010-02-22 01:36:00",1702551,4.942,119.3,3.837,0.445,-5.063,95.91653,-11.09,-9.66,90.7,0,108.9,13.89,-10.38,81.3
"2010-02-22 01:36:30",1702552,4.289,117.9,6.736,1.048,-6.22,95.91396,-11.1,-9.71,90.6,0,108.9,13.89,-10.39,79.9
"2010-02-22 01:37:00",1702553,4.303,118.7,4.766,1.005,-5.834,95.9103,-11.11,-9.73,90.6,0,108.9,13.89,-10.40,80.7
"2010-02-22 01:37:30",1702554,4.169,117,5.72,1.037,-6.44,95.91056,-11.11,-9.79,90.5,0,108.9,13.9,-10.40,79.0
"2010-02-22 01:38:00",1702555,4.363,118.9,5.311,1.002,-6.042,95.91138,-11.11,-9.72,90.6,0,108.9,13.9,-10.39,80.9
"2010-02-22 01:38:30",1702556,4.215,116.8,5.511,1.059,-5.606,95.91301,-11.1,-9.74,90.6,0,108.9,13.9,-10.39,78.8
"2010-02-22 01:39:00",1702557,4.551,121.2,4.176,0.917,-4.903,95.91301,-11.1,-9.71,90.6,0,108.9,13.89,-10.39,83.2
"2010-02-22 01:39:30",1702558,4.619,121.6,3.847,0.692,-4.97,95.91492,-11.1,-9.69,90.6,0,108.9,13.89,-10.38,83.6
"2010-02-22 01:40:00",1702559,4.639,124,3.216,0.565,-4.832,95.91301,-11.1,-9.69,90.6,0,108.9,13.89,-10.39,86.0
"2010-02-22 01:40:30",1702560,4.436,125.9,3.331,0.693,-4.899,95.91465,-11.1,-9.68,90.6,0,108.9,13.89,-10.39,87.9
"2010-02-22 01:41:00",1702561,4.403,125.6,3.446,0.708,-5.022,95.91492,-11.1,-9.69,90.6,0,108.9,13.89,-10.38,87.6
"2010-02-22 01:41:30",1702562,4.468,124.3,4.314,0.605,-5.322,95.91438,-11.1,-9.75,90.6,0,108.9,13.89,-10.39,86.3
"2010-02-22 01:42:00",1702563,3.682,120.2,5.705,1.112,-6.567,95.91546,-11.1,-9.75,90.5,0,108.9,13.89,-10.38,82.2
"2010-02-22 01:42:30",1702564,3.376,121.9,5.102,1.091,-7.043,95.91383,-11.1,-9.81,90.5,0,108.9,13.89,-10.39,83.9
"2010-02-22 01:43:00",1702565,4.853,121,6.592,0.599,-5.221,95.90957,-11.11,-9.75,90.5,0,108.9,13.89,-10.40,83.0
"2010-02-22 01:43:30",1702566,4.549,126.5,4.126,0.76,-4.548,95.90551,-11.12,-9.69,90.6,0,108.9,13.89,-10.41,88.5
"2010-02-22 01:44:00",1702567,4.598,123.7,2.481,0.679,-4.701,95.8987,-11.14,-9.71,90.6,0,108.9,13.9,-10.43,85.7
"2010-02-22 01:44:30",1702568,4.925,123.8,4.509,0.573,-4.758,95.8962,-11.14,-9.71,90.6,0,108.9,13.9,-10.43,85.8
"2010-02-22 01:45:00",1702569,4.837,116.7,4.994,0.806,-4.857,95.89476,-11.15,-9.72,90.5,0,108.9,13.9,-10.44,78.7
"2010-02-22 01:45:30",1702570,4.361,113.8,5.494,1.001,-5.833,95.89645,-11.14,-9.75,90.5,0,108.9,13.9,-10.43,75.8
"2010-02-22 01:46:00",1702571,5.024,119,3.993,0.706,-4.776,95.89587,-11.15,-9.73,90.5,0,108.9,13.9,-10.43,81.0
"2010-02-22 01:46:30",1702572,5.215,116.6,3.607,0.482,-4.758,95.89609,-11.15,-9.73,90.5,0,108.9,13.9,-10.43,78.6
"2010-02-22 01:47:00",1702573,5.305,113,3.033,0.708,-4.923,95.89217,-11.16,-9.71,90.5,0,108.9,13.9,-10.44,75.0